Regional Weather Roundup
Issued by NWS

Home | Current Version | Previous Version | Graphics & Text | Print | Product List | Glossary On
Versions: 1 2 3 4 5 6 7 8 9 10 11 12 13 14 15 16 17 18 19 20 21 22 23 24 25 26 27 28 29 30 31 32 33 34 35 36 37 38 39 40 41 42 43 44 45 46 47 48 49 50
706
ASUS45 KTFX 031210
RWRMT
MONTANA REGIONAL WEATHER ROUNDUP
NATIONAL WEATHER SERVICE GREAT FALLS MT
500 AM MST SAT DEC 03 2016

NOTE: "FAIR" INDICATES FEW OR NO CLOUDS BELOW 12000 FEET WITH NO
SIGNIFICANT WEATHER AND/OR OBSTRUCTIONS TO VISIBILITY.

MTZ001>007-043-031300-
WEST OF THE DIVIDE

CITY           SKY/WX    TMP DP  RH WIND       PRES   REMARKS
KALISPELL      CLOUDY    33  29  85 S10       29.95S WCI  25
MISSOULA       CLOUDY    30  28  92 SE3       30.04F
BUTTE          CLOUDY    26  21  81 CALM      29.97S
MULLAN PASS    CLOUDY    25  23  92 VRB5      29.92S FOG
ANACONDA         N/A     30  19  64 S12G21    29.97F WCI  21
DEER LODGE       N/A     27  21  80 CALM      29.99F
EUREKA           N/A     36  27  69 SE7       29.94R WCI  30
HAMILTON         N/A     34  27  75 S8        30.04R WCI  27
LIBBY            N/A     30  30 100 CALM      29.97R
PLAINS           N/A     34  27  76 CALM      30.00F
RONAN            N/A     34  29  82 CALM      30.02F
$$

MTZ008-052>055-031300-
SOUTHWEST MONTANA

CITY           SKY/WX    TMP DP  RH WIND       PRES   REMARKS
BOZEMAN        CLOUDY    26  23  88 NE3       29.98S
DILLON         CLOUDY    28  16  60 SW15      30.01R WCI  16
W YELLOWSTONE  LGT SNOW  18  12  79 SW8G23    30.06R WCI   7
ENNIS          CLOUDY    25  16  68 S16G26    30.07R WCI  12
THREE FORKS      N/A     30 -61   1 S14       29.97F WCI  19
TWIN BRIDGES     N/A     31  16  54 SE9       30.00S WCI  23
$$

MTZ009-010-012-014-046-048-049-054-031300-
EAST SLOPES AND CENTRAL MONTANA

CITY           SKY/WX    TMP DP  RH WIND       PRES   REMARKS
CUT BANK       CLEAR     30  20  66 W22       29.75F WCI  17
GREAT FALLS    CLOUDY    32  22  66 SW17      29.82R WCI  21
MALMSTROM AFB  MOCLDY    33  24  68 SW23G29   29.83R WCI  21
HELENA         PTCLDY    30  20  66 SE6       29.93F WCI  24
AUGUSTA          N/A     33  21  61 W35G51    29.76F WCI  18
BOWMANS CRNR     N/A     31  20  64 S24       29.79F WCI  17
CHOTEAU          N/A     37  18  44 E8        29.79R WCI  31
CONRAD           N/A     32  22  67 W5        29.81S
FAIRFIELD        N/A     34  20  56 S10       29.80S WCI  26
POWER          CLOUDY    32  22  65 SW20G25   29.80R WCI  20
RAYNESFORD     CLOUDY    36  21  55 NW5       29.82R
ULM            CLOUDY    35  23  61 W13G20    29.84S WCI  26
$$

MTZ011-013-016-021-045-047-050-051-031300-
NORTH CENTRAL MONTANA

CITY           SKY/WX    TMP DP  RH WIND       PRES   REMARKS
HAVRE          CLEAR     33  24  69 SW20      29.75S WCI  21
LEWISTOWN      CLOUDY    32  21  64 SW16      29.80S WCI  21
N BAR RANCH    CLOUDY    32  18  55 W3        29.80S
CHINOOK          N/A     37  21  52 SW17      29.73F WCI  28
DENTON         MOCLDY    33  22  64 SW18G31   29.75F WCI  22
GEYSER         MOCLDY    35  21  56 W17       29.79R WCI  25
GRASS RANGE    MOCLDY    32  22  66 W12       29.77S WCI  23
JUDITH GAP       N/A     28  18  65 W14       29.80S WCI  17
ROY            CLOUDY    36  21  53 MISG      29.77S
STANFORD         N/A     34  21  57 W25G36    29.77S WCI  22
WINIFRED       MOCLDY    33  21  61 MISG      29.77S
$$

MTZ017>020-022>027-061-062-031300-
NORTHEAST MONTANA

CITY           SKY/WX    TMP DP  RH WIND       PRES   REMARKS
GLASGOW        CLOUDY    27  25  92 VRB6      29.78F WCI  20
JORDAN           N/A     30  20  66 CALM      29.80F
SIDNEY         CLEAR     15  13  91 S10       29.88F WCI   2
WOLF POINT     CLOUDY    24  20  84 CALM      29.82F
PLENTYWOOD       N/A     19  18  93 SE8       29.80F WCI   9
POPLAR           N/A     23  18  80 S3        29.83F
SCOBEY           N/A     24  16  71 SE6       29.76F WCI  17
$$

MTZ028>42-056>058-031300-
SOUTHCENTRAL AND SOUTHEAST MONTANA

CITY           SKY/WX    TMP DP  RH WIND       PRES   REMARKS
BAKER          CLEAR     20  14  77 CALM      29.89
BILLINGS       CLOUDY    34  13  41 W15       29.86F WCI  24
LIVINGSTON     CLOUDY    30  15  53 SW35G45   29.91F WCI  14
MILES CITY     PTCLDY    21  16  81 S12       29.86F WCI   9
BIG TIMBER     CLOUDY    34  14  44 W39G48    29.88R WCI  18
EKALAKA          N/A     23  13  65 E8        29.86S WCI  14
FORSYTH          N/A     30  19  64 CALM      29.85F
HARLOWTON        N/A     30  20  66 W31G46    29.81R WCI  14
LAUREL           N/A     32   9  38 SW7       29.86F WCI  26
ROUNDUP          N/A     35  17  48 SW17      29.76S WCI  25
$$

REGIONAL REPORTS...DAKOTAS

CITY           SKY/WX    TMP DP  RH WIND       PRES   REMARKS
WILLISTON      CLEAR     22  18  85 S3        29.87F
MINOT          CLEAR     25  22  88 S8        29.94F WCI  16
DICKINSON      CLEAR     17  14  88 S13       29.89F WCI   4
BEACH            N/A     16  16 100 S12       29.90F WCI   3
CROSBY           N/A     21  19  93 S12       29.86F WCI   9
TIOGA            N/A     21  21 100 S16       29.88F WCI   7
WATFORD CITY     N/A     19  16  86 CALM      29.89F
BISMARCK       MOCLDY    23  22  96 SE13      30.05F WCI  11
GRAND FORKS    CLOUDY    27  20  75 S17       30.19F WCI  14
FARGO          PTCLDY    25  18  74 S9        30.23F WCI  15
BUFFALO SD       N/A     19  16  88 S7        29.83F WCI  10
RAPID CITY     CLEAR     21  16  81 VRB3      29.93F
$$

REGIONAL REPORTS...WYOMING/IDAHO/WASHINGTON

CITY           SKY/WX    TMP DP  RH WIND       PRES   REMARKS
GILLETTE       CLEAR     21  13  71 SW18      29.85S WCI   6
SHERIDAN       CLOUDY    20  14  77 E3        29.88S
BUFFALO WY     CLOUDY    27   6  41 W6        29.86S WCI  20
CODY           CLOUDY    31  11  43 W14G21    29.91R WCI  21
YELLOWSTONE LA   N/A     13   8  81 VRB7      30.03S WCI   3
IDAHO FALLS    CLOUDY    25  17  72 S6        30.17S WCI  18
SALMON         CLOUDY    27  25  93 CALM      30.11S
BOISE          CLOUDY    35  24  64 S5        30.23F
SPOKANE        MOCLDY    35  33  92 SW16      30.03F WCI  25
$$

REGIONAL REPORTS...ALBERTA

CITY           SKY/WX    TMP DP  RH WIND       PRES   REMARKS
EDMONTON       MOCLDY    23  19  86 SW10      29.65R WCI  12
CALGARY        MOCLDY    37  16  41 W13       29.67R WCI  29
LETHBRIDGE     MOCLDY    37  23  56 W28G33    29.71F WCI  25
MEDICINE HAT   CLOUDY    32  23  69 SW9       29.67F WCI  24
WATERTON GATE    N/A     32  23  69 SW18G31     N/A  WCI  20
CARDSTON         N/A     36  21  55 SW13G22     N/A  WCI  27
MILK RIVER       N/A     32  21  64 W17         N/A  WCI  21
$$

REGIONAL REPORTS...SASKATCHEWAN

CITY           SKY/WX    TMP DP  RH WIND       PRES   REMARKS
SWIFT CURRENT  CLOUDY    32  28  86 SW17      29.60F WCI  21
REGINA         MOCLDY    18  16  93 SE12      29.74F WCI   5
SASKATOON      CLOUDY    25  23  93 E10       29.69F FOG     WCI  15
VAL MARIE        N/A     28  27  93 S13         N/A  WCI  18
ROCKGLEN         N/A     27  25  93 SW9         N/A  WCI  17
ASSINIBOIA       N/A     27  25  93 S5          N/A
$$




USA.gov is the U.S. government's official web portal to all federal, state and local government web resources and services.